Варнемюнде

Германия     54°10′26″N   12°05′16″E
темп.,
°C
ветер,
м/с
пор.,
м/с
влажн.,
%
обл.,
%
осадки,
мм/ч
давл.,
гПа
погр.,
м
3 марта, ср
ср301:00+3ююв33820 0.0 103222
04:00+3ю33840 0.0 102923
07:00+3ю34840 0.0 102827
10:00+4юз34830 0.0 102785
13:00+6зюз45800 0.0 1025131
16:00+7з46820 0.0 1022133
19:00+6з57853 0.0 102185
22:00+4з712953 0.0 1019207
4 марта, чт
чт401:00+2зсз9129423 0.0 1019405
04:00+2з91488100 0.0 1016519
07:00+3з91392100 0.1 1016441
10:00+3зсз799298 0.0 1016349
13:00+3с578999 0.1 1017254
16:00+2св7889100 0.0 1017423
19:00+1св579199 0.1 1019594
22:00+1с467998 0.1 1021338
5 марта, пт
пт501:00+1с567553 0.1 1022226
04:00+1с457317 0.0 1022216
07:00+1с67718 0.0 1024389
10:00+2с57650 0.0 1025636
13:00+2с23570 0.0 1027416
16:00+2сз696649 0.1 1027620
19:00+2ссз796832 0.1 1029361
22:00+1с45640 0.0 1031311
6 марта, сб
сб601:00+1ссз34670 0.0 1032232
04:00+1зсз45680 0.0 1032299
07:00+1з68640 0.0 1032383
10:00+2з911561 0.0 1032650
13:00+3зюз8116341 0.0 1031576
16:00+3з7117480 0.0 1029469
19:00+3з8137955 0.0 1028408
22:00+2з9138567 0.0 1027520
7 марта, вс
вс701:00+2з9138454 0.0 1026838
04:00+2з101377100 0.0 1024937
07:00+2з101381100 0.1 1022896
10:00+2з91379100 0.0 1022859
13:00+3з91379100 0.1 1020688
16:00+3зюз91380100 0.0 1018561
19:00+3з81278100 0.1 1017452
22:00+3з81183100 0.0 1017356